Location: Fléré
(47.0201°N, 1.1079°E)
Time: 22:31:33
(UTC+00:00)

Daily predictions for brighter satellites

Satellite Brightness Start Highest point End
(mag) Time Altitude Azimuth Time Altitude Azimuth Time Altitude Azimuth
Meteor 1-21 4.4 17:02:39 10° S 17:08:06 56° E 17:13:37 10° NNE
SL-14 R/B 3.9 17:06:39 10° SSW 17:10:21 56° WNW 17:14:06 10° N
CORIOLIS 4.2 17:05:14 10° SSE 17:10:39 79° ENE 17:16:07 10° NNW
USA 306 3.5 17:09:35 10° NNW 17:10:54 14° N 17:12:26 10° NE
Cosmos 1758 3.9 17:07:14 10° NNW 17:11:03 59° W 17:14:51 10° S
Cosmos 1763 Rocket 3.6 17:06:00 10° S 17:11:07 59° ESE 17:16:11 10° NNE
Spot 4 Rocket 4.0 17:07:10 10° SSE 17:12:13 64° ENE 17:17:18 10° N
YAOGAN 1 4.0 17:10:36 10° E 17:13:13 16° ENE 17:15:51 10° NNE
Cosmos 1733 Rocket 3.6 17:10:38 10° N 17:14:45 38° ENE 17:18:52 10° SE
Cosmos 540 Rocket 3.7 17:11:53 10° S 17:16:51 52° ESE 17:21:49 10° NNE
Cosmos 2322 4.0 17:13:46 10° SSW 17:19:29 76° WNW 17:25:15 10° NNE
Cosmos 468 Rocket 4.4 17:15:53 10° S 17:20:47 44° ESE 17:25:40 10° NE
USA 215 3.8 17:16:55 10° NE 17:23:12 52° NNW 17:29:29 10° W
Cosmos 2228 Rocket 3.6 17:20:31 10° SSE 17:24:45 41° E 17:29:02 10° NNE
Cosmos 2279 Rocket 4.0 17:20:47 10° N 17:26:58 68° E 17:33:07 10° SSE
NOSS 8 (A) 4.3 17:25:44 10° NNW 17:28:36 52° NE 17:31:57 10° SE
Cosmos 1898 Rocket 3.9 17:24:26 10° N 17:29:29 42° ENE 17:34:31 10° SE
Cosmos 841 Rocket 4.5 17:26:03 10° SSE 17:30:23 27° E 17:34:44 10° NE
PSLV R/B 3.4 17:28:56 10° SSE 17:32:59 88° E 17:37:06 10° NNW
Aureole 1 Rocket 4.4 17:25:58 10° NNW 17:33:37 60° ENE 17:40:26 10° SE
Okean 1-7 3.8 17:34:45 10° SSE 17:38:29 30° E 17:42:14 10° NNE
SL-16 R/B 3.6 17:35:03 10° SE 17:38:39 18° E 17:40:54 14° ENE
Cosmos 1980 3.8 17:33:11 10° S 17:38:41 60° ESE 17:44:15 10° NNE
SMAP 3.9 17:37:32 10° S 17:42:06 55° W 17:46:41 10° NNW
Cosmos 1953 2.0 17:39:54 10° N 17:43:38 74° E 17:47:19 10° SSE
NOSS 0 Rocket 3.9 17:42:26 10° SSW 17:48:35 89° WNW 17:54:47 10° NNE
SKYMED 2 3.8 17:45:51 10° NNE 17:50:06 50° E 17:54:18 10° S
Cosmos 1818 4.1 17:46:49 10° NNW 17:51:56 38° NE 17:56:19 13° ESE
ATLAS 2AS CENTAUR R/B 3.0 17:46:57 10° NNW 17:53:26 43° NE 17:59:05 13° ESE
Cosmos 2369 Rocket 3.3 17:50:37 10° N 17:54:59 23° NE 17:56:55 19° ENE
ACS3 Solar Sail 2.0 17:49:43 10° SE 17:55:54 54° ENE 18:02:07 10° N
COSMOS 2428 3.5 17:50:28 10° SW 17:55:59 50° WNW 18:01:32 10° NNE
IGS 5A 3.9 17:52:50 10° S 17:56:48 61° W 18:00:48 10° NNW
Cosmos 2333 Rocket 4.5 17:54:37 10° WNW 17:58:06 16° NW 18:01:36 10° N
Cosmos 372 Rocket 3.8 17:54:30 10° NNW 17:59:36 70° ENE 18:04:40 10° SSE
Cosmos 1174 4.4 17:56:33 10° NW 18:00:12 59° WSW 18:04:39 10° SSE
DNEPR-1 R/B 3.7 17:59:28 10° NW 18:04:19 79° SW 18:08:33 10° SSE
BREEZE-M DEB (TANK) 3.6 17:55:51 10° W 18:05:23 72° NNW 18:07:22 27° ENE
Cosmos 1908 Rocket 3.8 18:03:42 10° N 18:07:50 42° ENE 18:11:57 10° SSE
Meteor 1-31 Rocket 2.4 18:08:41 10° SSE 18:12:13 66° ENE 18:15:47 10° N
Okean 3 4.1 18:08:40 10° SSW 18:12:40 55° WNW 18:16:45 10° N
Cosmos 1707 Rocket 4.0 18:09:04 10° SSW 18:13:28 63° WNW 18:17:53 10° N
EO 1 Delta rocket 3.7 18:09:17 10° NNE 18:14:00 71° E 18:18:40 10° S
Okean 2 3.8 18:12:34 10° SSW 18:16:27 62° W 18:20:24 10° N
Cosmos 2297 4.3 18:13:07 10° NNW 18:18:21 35° NE 18:20:18 28° E
Cosmos 1937 Rocket 3.3 18:14:27 10° NNW 18:19:37 78° ENE 18:24:47 10° SSE
CZ-2C R/B 3.4 18:22:18 30° NNE 18:22:18 30° NNE 18:24:21 10° N
Cosmos 2026 Rocket 4.3 18:16:09 10° SSE 18:22:08 46° E 18:28:09 10° NNE
Cosmos 858 Rocket 4.4 18:18:59 10° NNW 18:24:11 66° ENE 18:29:23 10° SSE
BREEZE-M DEB (TANK) 3.7 18:10:48 10° WSW 18:26:38 83° SSE 18:28:55 34° ENE
Cosmos 1943 Rocket 3.2 18:22:57 10° NW 18:28:23 48° WSW 18:33:44 10° S
Cosmos 1428 Rocket 4.4 18:22:47 10° S 18:28:56 68° E 18:35:04 10° NNE
RESURS DK-1 3.7 18:25:20 10° NW 18:29:07 40° WSW 18:32:53 10° S
YAOGAN 3 4.4 18:26:00 10° SSE 18:30:13 71° ENE 18:34:29 10° N
Cosmos 2237 Rocket 2.7 18:27:15 10° SW 18:32:52 60° WNW 18:37:58 13° NNE
BlueWalker 3 2.0 18:30:17 10° NW 18:33:52 51° NNE 18:33:52 51° NNE
CZ-4B R/B 4.0 18:34:30 10° S 18:38:04 60° WSW 18:41:36 10° NNW
COSMO-SKYMED 1 3.3 18:33:57 10° N 18:38:12 53° WNW 18:42:24 10° SSW
ISS -3.5 18:35:43 10° W 18:39:01 58° NNW 18:39:01 58° NNW
NOAA 6 4.2 18:34:53 10° S 18:39:58 71° WSW 18:45:06 10° NNW
USA 306 4.3 18:40:10 10° NW 18:40:49 16° NW 18:40:49 16° NW
Cosmos 2278 Rocket 4.2 18:37:46 10° NW 18:42:34 29° WSW 18:47:22 10° SSW
Cosmos 2344 4.1 18:36:08 10° WSW 18:43:19 49° NW 18:48:48 18° NNE
YAOGAN 1 3.0 18:44:28 10° S 18:48:40 60° W 18:52:55 10° NNW
CZ-4C R/B 2.1 18:46:33 10° SW 18:50:57 65° NW 18:53:04 35° NNE
YAOGAN 11 3.9 18:51:30 59° NNE 18:52:17 85° ESE 18:56:34 10° SSW
Nadezhda 4 Rocket 4.4 18:46:29 10° SSW 18:52:32 63° WNW 18:58:39 10° N
ATLAS 5 CENTAUR R/B 1.9 18:52:30 10° SW 18:54:38 40° SW 18:54:38 40° SW
Cosmos 2195 Rocket 4.4 18:50:50 10° S 18:57:02 87° W 19:03:14 10° N
Meteor 1-24 Rocket 3.8 18:51:21 10° S 18:57:05 56° E 18:58:09 49° ENE
SPOT 1/Viking Rocket 3.6 18:54:46 10° S 18:59:55 79° WSW 19:05:06 10° NNW
Cosmos 1703 Rocket 3.8 18:55:43 10° SSW 19:00:08 70° W 19:02:12 31° N
Resurs 1-3 3.8 19:00:09 10° S 19:04:27 68° WSW 19:08:46 10° NNW
USA 215 4.1 19:03:32 31° NNE 19:05:28 37° N 19:11:21 10° WNW
Meteor 2-5 Rocket 3.7 19:02:01 10° S 19:07:38 64° E 19:07:38 64° E
Cosmos 1703 4.4 19:07:11 10° SW 19:10:29 37° WNW 19:10:32 37° WNW
Cosmos 841 Rocket 4.4 19:06:53 10° SW 19:11:56 46° WNW 19:15:03 22° N
Cosmos 1656 Rocket 3.6 19:07:32 10° NNW 19:13:02 80° WSW 19:14:50 44° SSE
SL-16 R/B 2.2 19:16:22 10° SSW 19:22:02 78° WNW 19:22:50 65° N
Cosmos 1553 Rocket 3.9 19:18:35 10° N 19:23:51 64° NNE 19:23:51 64° NNE
ADEOS 4.0 19:29:31 54° NNW 19:29:31 54° NNW 19:33:33 10° NNW
Cosmos 2369 Rocket 2.5 19:34:00 10° NNW 19:38:45 62° NW 19:38:45 62° NW
ACS3 Solar Sail 3.7 19:34:15 10° SSW 19:39:44 30° W 19:45:15 10° NNW
ATLAS 2AS CENTAUR R/B 3.2 19:37:58 10° NW 19:44:31 54° WSW 19:46:35 40° S
Cosmos 839 Rocket 4.2 19:46:48 10° SW 19:52:34 67° WSW 19:52:34 67° WSW
